Погода в Ташле

Россия / Оренбургская область     52°24′31″N   56°14′10″E
темп.,
°C
ветер,
м/с
пор.,
м/с
влажн.,
%
обл.,
%
осадки,
мм/ч
давл.,
гПа
погр.,
м
18 апреля, вс
вс1823:00+11св21701 0.0 101811
02:00+9св11744 0.0 101710
05:00+8ссв32820 0.0 101716
08:00+8ссв24820 0.0 101792
11:00+13ссв34590 0.0 1016368
14:00+15с45460 0.0 1016889
17:00+15с56414 0.0 1016869
20:00+11с48505 0.0 1017185
19 апреля, пн
пн1923:00+8св511651 0.0 1018260
02:00+4в9156835 0.0 1021606
05:00+2в8147110 0.0 1023595
08:00+1в9146898 0.0 1025645
11:00+1в91349100 0.1 1026727
14:00+4вюв794599 0.0 10261050
17:00+6в783892 0.0 10261355
20:00+3в6104060 0.0 1028836
20 апреля, вт
вт2023:000в7124372 0.0 1030676
02:00−1в712445 0.0 1031737
05:00−2в612440 0.0 1033775
08:00−2в712380 0.0 1034844
11:00+2вюв79280 0.0 10341160
14:00+5вюв68260 0.0 10331406
17:00+6вюв67260 0.0 10331477
20:00+3вюв36410 0.0 1033138
21 апреля, ср
ср2123:00+1в22490 0.0 103518
02:000в39500 0.0 1034215
05:00−1вюв24510 0.0 1035110
08:00+1вюв37410 0.0 1036395
11:00+6юв57305 0.0 1034777
14:00+9юв56285 0.0 10331039
17:00+10ююв562970 0.0 10331245
20:00+7ююв374471 0.0 1034149
22 апреля, чт
чт2223:00+4юв3652100 0.0 1034106
02:00+3юв225756 0.0 103624
05:00+2вюв2257100 0.0 103618
08:00+4юв2752100 0.0 1037252
11:00+7ююв5842100 0.0 1037611
14:00+10ююв6835100 0.0 10361079
17:00+12ююв683685 0.0 10341372
20:00+9ююв3751100 0.0 1034185